Chicopee, MA

10:19 PM EST on February 21, 2017 (GMT -0500)
Westover Air Reserve Base / Metropolitan Airport

Weather History for KCEF - March, 2014

Change the Weather History Date:

Saturday, March 29, 2014

  Actual Average Record
Temperature  
Mean Temperature 46 °F -  
Max Temperature 53 °F 48 °F 75 °F (1998)
Min Temperature 39 °F 31 °F 21 °F (2015)
Degree Days  
Heating Degree Days 19    
Moisture  
Dew Point 43 °F    
Average Humidity 96    
Maximum Humidity 100    
Minimum Humidity 62    
Precipitation  
Precipitation 1.10 in - - ()
Sea Level Pressure  
Sea Level Pressure 30.08 in    
Wind  
Wind Speed 7 mph (North)    
Max Wind Speed 14 mph    
Max Gust Speed -    
Visibility 6 miles    
Events Rain    
Averages and records for this station are not official NWS values.
T = Trace of Precipitation, MM = Missing Value Source: NWS Daily Summary

Daily Weather History Graph

Daily Weather History Graph

Search for Another Location

Airport or City:

Trip Planner

Search our weather history database for the weather conditions in past years. The results will help you decide how hot, cold, wet, or windy it might be!

Date:

Astronomy

Mar. 29, 2014 Rise Set
Actual Time 6:37 AM EDT 7:12 PM EDT
Civil Twilight 6:09 AM EDT 7:40 PM EDT
Nautical Twilight 5:36 AM EDT 8:14 PM EDT
Astronomical Twilight 5:02 AM EDT 8:48 PM EDT
Moon 5:46 AM EDT (3/29) 6:13 PM EDT (3/29)
Length of Visible Light 13h 30m
Length of Day
12h 34m
Waning Crescent, 2% of the Moon is Illuminated
Mar 29
Waning Crescent
Mar 30
New
Apr 7
First Quarter
Apr 15
Full
Apr 22
Last Quarter

Hourly Weather History & Observations

Time (EDT) Temp. Windchill Dew Point Humidity Pressure Visibility Wind Dir Wind Speed Gust Speed Precip Events Conditions
12:12 AM 48.2 °F - 48.2 °F 100% 30.03 in 3.0 mi SSW 8.1 mph - N/A   Overcast
12:18 AM 46.4 °F 42.9 °F 46.4 °F 100% 30.04 in 2.5 mi SSW 6.9 mph - N/A   Overcast
12:21 AM 46.4 °F 42.9 °F 46.4 °F 100% 30.04 in 3.0 mi SSW 6.9 mph - N/A   Overcast
12:26 AM 46.4 °F 45.2 °F 46.4 °F 100% 30.05 in 2.5 mi SSW 3.5 mph - N/A   Overcast
12:27 AM 46.4 °F 45.2 °F 46.4 °F 100% 30.05 in 3.0 mi SSW 3.5 mph - N/A   Overcast
12:38 AM 46.4 °F 43.5 °F 46.4 °F 100% 30.07 in 2.5 mi West 5.8 mph - N/A   Overcast
12:41 AM 46.4 °F 43.5 °F 46.4 °F 100% 30.07 in 2.0 mi WNW 5.8 mph - N/A   Overcast
12:43 AM 46.4 °F 43.5 °F 46.4 °F 100% 30.07 in 1.8 mi West 5.8 mph - N/A   Overcast
12:44 AM 46.4 °F 43.5 °F 46.4 °F 100% 30.07 in 1.5 mi West 5.8 mph - N/A Rain Light Rain
12:45 AM 46.4 °F 44.3 °F 46.4 °F 100% 30.07 in 1.5 mi West 4.6 mph - N/A Rain Light Rain
12:46 AM 46.4 °F 45.2 °F 46.4 °F 100% 30.07 in 1.2 mi WSW 3.5 mph - N/A Rain Light Rain
12:47 AM 46.4 °F 45.2 °F 46.4 °F 100% 30.07 in 1.2 mi WSW 3.5 mph - N/A Rain Light Rain
12:48 AM 46.4 °F 44.3 °F 46.4 °F 100% 30.07 in 1.2 mi West 4.6 mph - N/A Rain Light Rain
12:49 AM 46.4 °F 44.3 °F 46.4 °F 100% 30.07 in 1.0 mi West 4.6 mph - N/A Rain Light Rain
12:50 AM 46.4 °F 44.3 °F 46.4 °F 100% 30.07 in 1.0 mi West 4.6 mph - N/A Rain Light Rain
12:55 AM 46.4 °F 44.3 °F 46.4 °F 100% 30.07 in 1.0 mi WSW 4.6 mph - N/A Rain Light Rain
12:58 AM 46.9 °F - 46.9 °F 100% 30.09 in 1.0 mi SW 5.8 mph - 0.00 in   Light Drizzle
1:02 AM 46.4 °F 44.3 °F 46.4 °F 100% 30.08 in 1.0 mi SW 4.6 mph - N/A   Light Drizzle
1:05 AM 46.4 °F 44.3 °F 46.4 °F 100% 30.08 in 1.0 mi SW 4.6 mph - N/A Rain Light Rain
1:06 AM 46.4 °F 43.5 °F 46.4 °F 100% 30.08 in 0.8 mi SW 5.8 mph - N/A Rain Light Rain
1:18 AM 46.4 °F 43.5 °F 46.4 °F 100% 30.09 in 1.0 mi SW 5.8 mph - N/A   Overcast
1:25 AM 46.4 °F 42.9 °F 46.4 °F 100% 30.09 in 1.0 mi WSW 6.9 mph - N/A   Overcast
1:27 AM 46.4 °F 42.9 °F 46.4 °F 100% 30.10 in 1.0 mi WSW 6.9 mph - N/A   Overcast
1:28 AM 46.4 °F 42.9 °F 46.4 °F 100% 30.10 in 1.2 mi WSW 6.9 mph - N/A   Overcast
1:29 AM 46.4 °F 42.9 °F 46.4 °F 100% 30.10 in 1.2 mi WSW 6.9 mph - N/A   Overcast
1:30 AM 46.4 °F 42.9 °F 46.4 °F 100% 30.10 in 1.5 mi WSW 6.9 mph - N/A   Overcast
1:31 AM 46.4 °F 42.9 °F 46.4 °F 100% 30.10 in 1.8 mi West 6.9 mph - N/A   Overcast
1:32 AM 46.4 °F 42.9 °F 46.4 °F 100% 30.10 in 2.0 mi West 6.9 mph - N/A   Overcast
1:33 AM 46.4 °F 42.9 °F 46.4 °F 100% 30.10 in 2.5 mi West 6.9 mph - N/A   Overcast
1:35 AM 46.4 °F 42.9 °F 46.4 °F 100% 30.10 in 3.0 mi West 6.9 mph - N/A   Overcast
1:58 AM 45.9 °F 41.7 °F 45.9 °F 100% 30.12 in 8.0 mi NW 8.1 mph - 0.01 in   Overcast
2:58 AM 46.0 °F 41.0 °F 45.5 °F 98% 30.14 in 10.0 mi NW 10.4 mph - N/A   Mostly Cloudy
3:58 AM 43.3 °F 38.6 °F 43.0 °F 99% 30.13 in 10.0 mi North 8.1 mph - N/A   Clear
4:58 AM 43.3 °F 37.2 °F 42.3 °F 96% 30.14 in 10.0 mi North 11.5 mph - N/A   Clear
5:58 AM 41.4 °F 36.8 °F 40.8 °F 98% 30.15 in 10.0 mi North 6.9 mph - N/A   Clear
6:58 AM 39.4 °F - 39.0 °F 99% 30.19 in 10.0 mi SW 2.3 mph - N/A   Clear
7:58 AM 39.2 °F - 38.8 °F 99% 30.22 in 10.0 mi East 1.2 mph - N/A   Clear
8:58 AM 45.1 °F 42.8 °F 44.4 °F 97% 30.23 in 10.0 mi NNE 4.6 mph - N/A   Clear
9:58 AM 46.6 °F - 43.5 °F 89% 30.25 in 10.0 mi NE 4.6 mph - N/A   Scattered Clouds
10:58 AM 49.1 °F - 43.9 °F 82% 30.24 in 10.0 mi NE 8.1 mph - N/A   Overcast
11:24 AM 50.0 °F - 42.8 °F 76% 30.21 in 10.0 mi ENE 8.1 mph - N/A   Overcast
11:58 AM 51.1 °F - 43.0 °F 74% 30.22 in 10.0 mi NNE 8.1 mph - N/A   Overcast
12:07 PM 51.8 °F - 42.8 °F 71% 30.19 in 10.0 mi East 8.1 mph - N/A   Overcast
12:58 PM 52.5 °F - 42.3 °F 68% 30.19 in 10.0 mi ENE 6.9 mph - N/A   Overcast
1:58 PM 53.1 °F - 41.2 °F 64% 30.17 in 10.0 mi Variable 3.5 mph - N/A   Overcast
2:11 PM 53.6 °F - 41.0 °F 62% 30.15 in 10.0 mi Variable 3.5 mph - N/A   Light Drizzle
2:58 PM 49.3 °F - 48.7 °F 98% 30.16 in 8.0 mi East 2.3 mph - 0.04 in Rain Light Rain
3:58 PM 46.9 °F - 46.8 °F 99% 30.14 in 9.0 mi ENE 9.2 mph - 0.06 in Rain Light Rain
4:12 PM 46.4 °F 42.9 °F 46.4 °F 100% 30.12 in 10.0 mi East 6.9 mph - N/A Rain Light Rain
4:24 PM 46.4 °F 42.9 °F 46.4 °F 100% 30.11 in 10.0 mi Variable 6.9 mph - N/A Rain Light Rain
4:49 PM 46.4 °F 44.3 °F 44.6 °F 93% 30.10 in 10.0 mi East 4.6 mph - N/A Rain Light Rain
4:58 PM 45.3 °F 43.0 °F 45.1 °F 99% 30.12 in 10.0 mi Variable 4.6 mph - 0.03 in Rain Light Rain
5:15 PM 44.6 °F 40.2 °F 44.6 °F 100% 30.09 in 10.0 mi ENE 8.1 mph - N/A   Overcast
5:18 PM 44.6 °F 38.8 °F 44.6 °F 100% 30.09 in 10.0 mi NE 11.5 mph - N/A Rain Light Rain
5:19 PM 44.6 °F 38.8 °F 44.6 °F 100% 30.09 in 10.0 mi NE 11.5 mph - N/A Rain Light Rain
5:58 PM 43.3 °F 39.2 °F 43.2 °F 99% 30.11 in 10.0 mi NE 6.9 mph - 0.04 in Rain Light Rain
6:07 PM 42.8 °F 37.0 °F 42.8 °F 100% 30.08 in 7.0 mi ENE 10.4 mph - N/A Rain Light Rain
6:23 PM 42.8 °F 39.3 °F 41.0 °F 93% 30.08 in 8.0 mi ENE 5.8 mph - N/A Rain Light Rain
6:24 PM 42.8 °F 39.3 °F 41.0 °F 93% 30.08 in 8.0 mi ENE 5.8 mph - N/A Rain Light Rain
6:26 PM 42.8 °F 38.6 °F 41.0 °F 93% 30.08 in 7.0 mi NE 6.9 mph - N/A Rain Light Rain
6:33 PM 41.0 °F 35.8 °F 41.0 °F 100% 30.08 in 6.0 mi NE 8.1 mph - N/A Rain Light Rain
6:38 PM 41.0 °F 35.8 °F 41.0 °F 100% 30.07 in 9.0 mi NE 8.1 mph - N/A Rain Light Rain
6:57 PM 41.0 °F 36.4 °F 41.0 °F 100% 30.07 in 10.0 mi NE 6.9 mph - N/A Rain Light Rain
6:58 PM 41.0 °F 36.4 °F 41.0 °F 100% 30.09 in 10.0 mi NNE 6.9 mph - 0.09 in Rain Light Rain
7:06 PM 41.0 °F 35.8 °F 41.0 °F 100% 30.06 in 10.0 mi NE 8.1 mph - N/A Rain Light Rain
7:25 PM 41.0 °F 35.2 °F 41.0 °F 100% 30.05 in 10.0 mi NNE 9.2 mph - N/A Rain Light Rain
7:31 PM 41.0 °F 35.2 °F 41.0 °F 100% 30.05 in 10.0 mi NNE 9.2 mph - N/A Rain Light Rain
7:40 PM 41.0 °F 35.8 °F 41.0 °F 100% 30.05 in 9.0 mi NNE 8.1 mph - N/A Rain Light Rain
7:46 PM 41.0 °F 35.8 °F 41.0 °F 100% 30.05 in 10.0 mi NNE 8.1 mph - N/A Rain Light Rain
7:55 PM 41.0 °F 35.8 °F 41.0 °F 100% 30.04 in 10.0 mi NE 8.1 mph - N/A Rain Light Rain
7:58 PM 40.8 °F 35.0 °F 40.6 °F 99% 30.06 in 10.0 mi NE 9.2 mph - 0.06 in Rain Light Rain
8:11 PM 41.0 °F 36.4 °F 41.0 °F 100% 30.04 in 7.0 mi NNE 6.9 mph - N/A Rain Light Rain
8:58 PM 40.3 °F 33.9 °F 40.1 °F 99% 30.04 in 4.0 mi NNE 10.4 mph - 0.16 in Rain Heavy Rain
9:10 PM 41.0 °F 34.3 °F 39.2 °F 93% 30.01 in 5.0 mi NNE 11.5 mph - N/A Rain Rain
9:24 PM 41.0 °F 37.1 °F 39.2 °F 93% 30.01 in 6.0 mi NNE 5.8 mph - N/A Rain Rain
9:28 PM 41.0 °F 35.2 °F 39.2 °F 93% 30.01 in 5.0 mi NNE 9.2 mph - N/A Rain Rain
9:31 PM 41.0 °F 37.1 °F 39.2 °F 93% 30.01 in 5.0 mi NNE 5.8 mph - N/A Rain Rain
9:34 PM 41.0 °F 37.1 °F 39.2 °F 93% 30.02 in 5.0 mi NE 5.8 mph - N/A Rain Rain
9:58 PM 39.9 °F 36.7 °F 39.7 °F 99% 30.04 in 7.0 mi North 4.6 mph - 0.23 in Rain Light Rain
10:19 PM 41.0 °F 34.3 °F 39.2 °F 93% 29.98 in 7.0 mi North 11.5 mph - N/A Rain Rain
10:20 PM 39.2 °F 31.6 °F 39.2 °F 100% 29.98 in 7.0 mi NNE 12.7 mph - N/A Rain Rain
10:29 PM 39.2 °F 32.5 °F 39.2 °F 100% 29.97 in 7.0 mi NNE 10.4 mph - N/A Rain Rain
10:49 PM 39.2 °F 32.5 °F 39.2 °F 100% 29.96 in 7.0 mi North 10.4 mph - N/A Rain Rain
10:58 PM 39.9 °F 32.1 °F 39.7 °F 99% 29.97 in 5.0 mi NNE 13.8 mph - 0.14 in Rain Rain
11:57 PM 39.2 °F 32.0 °F 39.2 °F 100% 29.91 in 4.0 mi NNE 11.5 mph - N/A Rain Heavy Rain
11:58 PM 39.2 °F 32.0 °F 39.2 °F 100% 29.94 in 4.0 mi NNE 11.5 mph - 0.24 in Rain Heavy Rain